STARLINK-32479 (62148 NORAD) Tracking and Keplerian Element Data

This shows tracking and keplerian element data for the satellite.

Feedback or suggestion? Click here.




ElementValue
Catalog62148
NameSTARLINK-32479
Epoch Orbit1135
Epoch Day35.03471579
Epoch Year2025
RAAN257.046
Inclination43.0025
Eccentricity0.0001163
Argument of Perigee269.5436
Mean Anonmoly90.5284
Mean Motion15.32093045
Decay Rate6.36E-06
L11 62148U 24224K 25035.03471579 .00000636 00000+0 28787-4 0 9996
L22 62148 43.0025 257.0460 0001163 269.5436 90.5284 15.32093045 11357



Live tracking and technical data element details for STARLINK-32479 (NORAD 62148). STARLINK-32479 can be tracked NOW for your location showing map with azimuth and elevation plus other details from your city location.







IsCatalogInMostPopularTable: catalog: 62148, numindb: 16
Update: records affected: 1



GetName: 62148 STARLINK-32479

Hit Count: updated at: Mon, 19 May 2025 03:04:59 GMT